Overview Statistics Trail Chart Weather Telemetry Raw packets
 

This is the latest recevied weather packets stored in our database for station/object KQ7A. If no packets are shown the sender has not sent any weather packets the latest 10 day(s).

<< 51 52 53 54 55 56 57 >>
Time Temp. Humidity Pressure Rain* Wind** Luminosity Snow
1788331794 15.56° C 21% 1016.1 hPa 0 mm - 0 W/m² -
1788331490 15° C 19% 1016.1 hPa 0 mm - 0 W/m² -
1788331186 15° C 23% 1016 hPa 0 mm - 0 W/m² -
1788330880 15° C 20% 1015.8 hPa 0 mm - 0 W/m² -
1788330576 15.56° C 23% 1015.6 hPa 0 mm - 0 W/m² -
1788330274 15° C 26% 1015.6 hPa 0 mm - 0 W/m² -
1788329969 15° C 26% 1016 hPa 0 mm - 0 W/m² -
1788329664 15.56° C 25% 1016 hPa 0 mm - 0 W/m² -
1788329361 15.56° C 24% 1015.9 hPa 0 mm - 0 W/m² -
1788329056 15° C 28% 1015.8 hPa 0 mm - 0 W/m² -
1788328752 15.56° C 28% 1016 hPa 0 mm - 0 W/m² -
1788328448 15.56° C 27% 1015.5 hPa 0 mm - 0 W/m² -
1788328143 15.56° C 25% 1015.6 hPa 0 mm - 0 W/m² -
1788327838 15.56° C 24% 1015.9 hPa 0 mm - 0 W/m² -
1788327534 15.56° C 26% 1015.8 hPa 0 mm - 0 W/m² -
1788327234 15.56° C 29% 1015.6 hPa 0 mm - 0 W/m² -
1788326933 16.11° C 26% 1015.8 hPa 0 mm - 0 W/m² -
1788326628 16.11° C 26% 1016 hPa 0 mm - 0 W/m² -
1788326324 16.11° C 27% 1015.6 hPa 0 mm - 0 W/m² -
1788326023 16.11° C 26% 1015.8 hPa 0 mm - 0 W/m² -
1788325718 16.11° C 26% 1015.9 hPa 0 mm - 0 W/m² -
1788325417 16.11° C 25% 1015.8 hPa 0 mm - 0 W/m² -
1788325113 16.11° C 27% 1015.6 hPa 0 mm - 0 W/m² -
1788324809 16.11° C 25% 1015.6 hPa 0 mm - 0 W/m² -
1788324505 16.11° C 25% 1015.8 hPa 0 mm - 0 W/m² -

* Rain latest hour (hover to see other rain measurements)
** Current wind speed in m/s (hover to see current wind gust speed)